Versión en castellano
places Weather data articles

Conditions at Mairena del Aljarafe, Sevilla, Spain
Year Month Day Show

  Date        time        Out Temp.    Out hum.   Wind Dir.    Wind speed   SL Pressure   In T. Today rain 

   26-06-2017    15:40      32.3º(-4.8)     26%      022 (N)      8.0 km/h    1011.4 hpa     31.6º    0.0 mm
   26-06-2017    15:35      32.1º(-5.0)     28%      045(NE)      6.4 km/h    1011.3 hpa     31.6º    0.0 mm
   26-06-2017    15:30      32.0º(-5.2)     28%      045(NE)      8.0 km/h    1011.5 hpa     31.6º    0.0 mm
   26-06-2017    15:25      32.3º(-5.1)     29%      022 (N)      6.4 km/h    1011.4 hpa     31.6º    0.0 mm
   26-06-2017    15:20      32.2º(-5.5)     29%      045(NE)      8.0 km/h    1011.6 hpa     31.4º    0.0 mm
   26-06-2017    15:15      32.0º(-5.8)     28%      045(NE)      4.8 km/h    1011.5 hpa     31.4º    0.0 mm
   26-06-2017    15:10      31.6º(-5.8)     31%      022 (N)      8.0 km/h    1011.6 hpa     31.4º    0.0 mm
   26-06-2017    15:05      31.7º(-5.6)     31%      045(NE)      6.4 km/h    1011.5 hpa     31.3º    0.0 mm
   26-06-2017    15:00      31.6º(-5.6)     30%      045(NE)      6.4 km/h    1011.7 hpa     31.3º    0.0 mm
   26-06-2017    14:55      31.3º(-5.5)     30%      067(NE)      8.0 km/h    1011.8 hpa     31.3º    0.0 mm
   26-06-2017    14:50      31.3º(-5.1)     32%      022 (N)      8.0 km/h    1011.7 hpa     31.3º    0.0 mm
   26-06-2017    14:45      31.2º(-5.1)     33%      045(NE)      8.0 km/h    1011.7 hpa     31.3º    0.0 mm
   26-06-2017    14:40      31.2º(-4.9)     34%      045(NE)      8.0 km/h    1011.9 hpa     31.3º    0.0 mm
   26-06-2017    14:35      30.9º(-5.1)     35%      045(NE)      8.0 km/h    1011.9 hpa     31.4º    0.0 mm
   26-06-2017    14:30      30.7º(-5.0)     37%      045(NE)      8.0 km/h    1012.1 hpa     31.4º    0.0 mm
   26-06-2017    14:25      30.9º(-4.5)     38%      067(NE)      4.8 km/h    1012.0 hpa     31.4º    0.0 mm
   26-06-2017    14:20      30.7º(-4.9)     38%      045(NE)      8.0 km/h    1012.1 hpa     31.4º    0.0 mm
   26-06-2017    14:15      30.8º(-4.5)     41%      045(NE)      6.4 km/h    1012.1 hpa     31.4º    0.0 mm
   26-06-2017    14:10      30.6º(-4.7)     40%      045(NE)      6.4 km/h    1012.2 hpa     31.4º    0.0 mm
   26-06-2017    14:05      30.6º(-5.0)     39%      067(NE)      6.4 km/h    1012.1 hpa     31.4º    0.0 mm
   26-06-2017    14:00      30.5º(-5.2)     39%      045(NE)      6.4 km/h    1012.2 hpa     31.4º    0.0 mm
   26-06-2017    13:55      30.2º(-5.7)     40%      067(NE)      6.4 km/h    1012.3 hpa     31.4º    0.0 mm
   26-06-2017    13:50      30.3º(-5.8)     41%      045(NE)      3.2 km/h    1012.4 hpa     31.4º    0.0 mm
   26-06-2017    13:45      30.2º(-5.7)     40%      202 (S)      8.0 km/h    1012.2 hpa     31.4º    0.0 mm
   26-06-2017    13:40      30.3º(-5.5)     40%      202 (S)      4.8 km/h    1012.3 hpa     31.4º    0.0 mm
   26-06-2017    13:35      30.0º(-5.7)     42%      247(SW)      4.8 km/h    1012.4 hpa     31.4º    0.0 mm
   26-06-2017    13:30      29.9º(-5.8)     41%      270 (W)      6.4 km/h    1012.3 hpa     31.4º    0.0 mm
   26-06-2017    13:25      29.9º(-5.4)     41%      270 (W)      4.8 km/h    1012.5 hpa     31.4º    0.0 mm
   26-06-2017    13:20      29.8º(-5.3)     42%      067(NE)      4.8 km/h    1012.4 hpa     31.4º    0.0 mm
   26-06-2017    13:15      29.8º(-5.3)     41%      045(NE)      4.8 km/h    1012.7 hpa     31.3º    0.0 mm
   26-06-2017    13:10      29.7º(-5.1)     42%      225(SW)      4.8 km/h    1012.7 hpa     31.3º    0.0 mm
   26-06-2017    13:05      29.9º(-4.8)     42%      270 (W)      4.8 km/h    1012.6 hpa     31.3º    0.0 mm
   26-06-2017    13:00      29.7º(-5.0)     37%      270 (W)      3.2 km/h    1012.6 hpa     31.3º    0.0 mm
   26-06-2017    12:55      29.3º(-5.6)     37%      292 (W)      3.2 km/h    1012.6 hpa     31.3º    0.0 mm
   26-06-2017    12:50      29.1º(-5.9)     42%      270 (W)      4.8 km/h    1012.5 hpa     31.3º    0.0 mm
   26-06-2017    12:45      29.1º(-6.0)     46%      225(SW)      1.6 km/h    1012.4 hpa     31.3º    0.0 mm
   26-06-2017    12:40      29.0º(-6.3)     46%      247(SW)      1.6 km/h    1012.5 hpa     31.3º    0.0 mm
   26-06-2017    12:35      28.8º(-6.6)     45%         -         0.0 km/h    1012.5 hpa     31.3º    0.0 mm
   26-06-2017    12:30      28.8º(-6.4)     45%      045(NE)      3.2 km/h    1012.5 hpa     31.3º    0.0 mm
   26-06-2017    12:25      28.6º(-6.4)     46%      045(NE)      1.6 km/h    1012.5 hpa     31.3º    0.0 mm
   26-06-2017    12:20      28.4º(-6.3)     46%      045(NE)      1.6 km/h    1012.5 hpa     31.3º    0.0 mm
   26-06-2017    12:15      28.2º(-6.3)     47%      022 (N)      1.6 km/h    1012.5 hpa     31.3º    0.0 mm
   26-06-2017    12:10      28.0º(-6.3)     47%      225(SW)      1.6 km/h    1012.4 hpa     31.3º    0.0 mm
   26-06-2017    12:05      28.1º(-6.0)     47%         -         0.0 km/h    1012.5 hpa     31.3º    0.0 mm
   26-06-2017    12:00      28.1º(-6.0)     48%      202 (S)      1.6 km/h    1012.4 hpa     31.3º    0.0 mm
   26-06-2017    11:55      27.8º(-6.3)     48%         -         0.0 km/h    1012.4 hpa     31.3º    0.0 mm
   26-06-2017    11:50      27.6º(-6.7)     47%      247(SW)      1.6 km/h    1012.5 hpa     31.3º    0.0 mm
   26-06-2017    11:45      27.5º(-6.9)     47%      180 (S)      1.6 km/h    1012.5 hpa     31.3º    0.0 mm
   26-06-2017    11:40      27.2º(-7.0)     50%         -         0.0 km/h    1012.4 hpa     31.3º    0.0 mm
   26-06-2017    11:35      26.9º(-7.0)     52%      225(SW)      1.6 km/h    1012.4 hpa     31.3º    0.0 mm
   26-06-2017    11:30      26.9º(-6.9)     53%         -         0.0 km/h    1012.5 hpa     31.3º    0.0 mm
   26-06-2017    11:25      26.6º(-7.4)     54%         -         0.0 km/h    1012.3 hpa     31.3º    0.0 mm
   26-06-2017    11:20      26.3º(-7.9)     56%         -         0.0 km/h    1012.4 hpa     31.4º    0.0 mm
   26-06-2017    11:15      26.2º(-7.9)     56%         -         0.0 km/h    1012.4 hpa     31.4º    0.0 mm
   26-06-2017    11:10      26.0º(-7.8)     56%         -         0.0 km/h    1012.4 hpa     31.4º    0.0 mm
   26-06-2017    11:05      25.9º(-7.7)     60%      090 (E)      1.6 km/h    1012.3 hpa     31.4º    0.0 mm
   26-06-2017    11:00      26.0º(-7.4)     60%         -         0.0 km/h    1012.4 hpa     31.4º    0.0 mm
   26-06-2017    10:55      25.7º(-7.6)     59%         -         0.0 km/h    1012.4 hpa     31.4º    0.0 mm
   26-06-2017    10:50      25.5º(-7.6)     60%         -         0.0 km/h    1012.3 hpa     31.4º    0.0 mm
   26-06-2017    10:45      25.1º(-7.7)     60%         -         0.0 km/h    1012.5 hpa     31.4º    0.0 mm
   26-06-2017    10:40      25.1º(-7.5)     62%         -         0.0 km/h    1012.5 hpa     31.4º    0.0 mm
   26-06-2017    10:35      24.9º(-7.7)     63%         -         0.0 km/h    1012.4 hpa     31.4º    0.0 mm
   26-06-2017    10:30      24.8º(-7.3)     65%         -         0.0 km/h    1012.4 hpa     31.4º    0.0 mm
   26-06-2017    10:25      24.7º(-7.0)     66%         -         0.0 km/h    1012.4 hpa     31.4º    0.0 mm
   26-06-2017    10:20      24.5º(-7.0)     68%         -         0.0 km/h    1012.4 hpa     31.4º    0.0 mm
   26-06-2017    10:15      24.4º(-7.0)     68%         -         0.0 km/h    1012.4 hpa     31.4º    0.0 mm
   26-06-2017    10:10      24.3º(-6.9)     69%         -         0.0 km/h    1012.3 hpa     31.4º    0.0 mm
   26-06-2017    10:05      24.1º(-7.0)     70%         -         0.0 km/h    1012.2 hpa     31.4º    0.0 mm
   26-06-2017    10:00      23.9º(-7.0)     72%         -         0.0 km/h    1012.2 hpa     31.4º    0.0 mm
   26-06-2017    09:55      23.7º(-7.0)     74%         -         0.0 km/h    1012.2 hpa     31.4º    0.0 mm
   26-06-2017    09:50      23.5º(-7.1)     73%      157(SE)      1.6 km/h    1012.2 hpa     31.4º    0.0 mm
   26-06-2017    09:45      23.7º(-6.7)     73%         -         0.0 km/h    1012.2 hpa     31.4º    0.0 mm
   26-06-2017    09:40      23.6º(-6.7)     73%         -         0.0 km/h    1012.1 hpa     31.6º    0.0 mm
   26-06-2017    09:35      23.5º(-6.7)     74%         -         0.0 km/h    1012.0 hpa     31.6º    0.0 mm
   26-06-2017    09:30      23.3º(-6.8)     74%         -         0.0 km/h    1012.0 hpa     31.6º    0.0 mm
   26-06-2017    09:25      23.1º(-6.8)     74%         -         0.0 km/h    1011.9 hpa     31.6º    0.0 mm
   26-06-2017    09:20      23.1º(-6.7)     75%         -         0.0 km/h    1011.9 hpa     31.6º    0.0 mm
   26-06-2017    09:15      23.1º(-6.5)     75%         -         0.0 km/h    1011.9 hpa     31.6º    0.0 mm
   26-06-2017    09:10      23.1º(-6.3)     75%         -         0.0 km/h    1011.9 hpa     31.6º    0.0 mm
   26-06-2017    09:05      22.9º(-6.4)     73%         -         0.0 km/h    1011.9 hpa     31.7º    0.0 mm
   26-06-2017    09:00      23.0º(-6.2)     73%         -         0.0 km/h    1011.7 hpa     31.7º    0.0 mm
   26-06-2017    08:55      22.9º(-6.2)     74%         -         0.0 km/h    1011.7 hpa     31.7º    0.0 mm
   26-06-2017    08:50      22.7º(-6.2)     74%         -         0.0 km/h    1011.6 hpa     31.8º    0.0 mm
   26-06-2017    08:45      22.6º(-6.1)     77%         -         0.0 km/h    1011.5 hpa     31.8º    0.0 mm
   26-06-2017    08:40      22.6º(-6.0)     77%         -         0.0 km/h    1011.5 hpa     31.8º    0.0 mm
   26-06-2017    08:35      22.6º(-5.8)     78%         -         0.0 km/h    1011.4 hpa     31.8º    0.0 mm
   26-06-2017    08:30      22.4º(-5.9)     79%         -         0.0 km/h    1011.4 hpa     31.8º    0.0 mm
   26-06-2017    08:25      22.3º(-5.8)     80%         -         0.0 km/h    1011.4 hpa     31.8º    0.0 mm
   26-06-2017    08:20      22.0º(-5.9)     81%         -         0.0 km/h    1011.4 hpa     31.8º    0.0 mm
   26-06-2017    08:15      21.8º(-6.0)     81%         -         0.0 km/h    1011.3 hpa     31.8º    0.0 mm
   26-06-2017    08:10      21.6º(-6.1)     82%         -         0.0 km/h    1011.3 hpa     31.9º    0.0 mm
   26-06-2017    08:05      21.4º(-6.1)     82%         -         0.0 km/h    1011.3 hpa     31.9º    0.0 mm
   26-06-2017    08:00      21.3º(-6.1)     83%         -         0.0 km/h    1011.3 hpa     31.9º    0.0 mm
   26-06-2017    07:55      21.2º(-6.2)     83%         -         0.0 km/h    1011.3 hpa     31.9º    0.0 mm
   26-06-2017    07:50      21.1º(-6.3)     84%         -         0.0 km/h    1011.4 hpa     31.9º    0.0 mm
   26-06-2017    07:45      21.0º(-6.4)     83%         -         0.0 km/h    1011.2 hpa     31.9º    0.0 mm
   26-06-2017    07:40      20.9º(-6.5)     83%         -         0.0 km/h    1011.1 hpa     31.9º    0.0 mm
   26-06-2017    07:35      20.8º(-6.6)     84%         -         0.0 km/h    1011.2 hpa     31.9º    0.0 mm
   26-06-2017    07:30      20.7º(-6.6)     84%         -         0.0 km/h    1011.2 hpa     31.9º    0.0 mm
   26-06-2017    07:25      20.7º(-6.6)     83%         -         0.0 km/h    1011.2 hpa     31.9º    0.0 mm
   26-06-2017    07:20      20.8º(-6.4)     84%         -         0.0 km/h    1011.1 hpa     31.9º    0.0 mm
   26-06-2017    07:15      20.8º(-6.5)     83%         -         0.0 km/h    1011.2 hpa     31.9º    0.0 mm
   26-06-2017    07:10      20.8º(-6.6)     83%         -         0.0 km/h    1011.2 hpa     31.8º    0.0 mm
   26-06-2017    07:05      20.9º(-6.7)     83%         -         0.0 km/h    1011.1 hpa     31.8º    0.0 mm
   26-06-2017    07:00      20.9º(-7.0)     82%         -         0.0 km/h    1011.1 hpa     31.8º    0.0 mm
   26-06-2017    06:55      20.9º(-7.7)     82%         -         0.0 km/h    1011.0 hpa     31.9º    0.0 mm
   26-06-2017    06:50      20.8º(-7.9)     81%         -         0.0 km/h    1010.9 hpa     31.9º    0.0 mm
   26-06-2017    06:45      20.8º(-8.0)     81%         -         0.0 km/h    1010.9 hpa     31.8º    0.0 mm
   26-06-2017    06:40      20.7º(-8.0)     81%         -         0.0 km/h    1010.8 hpa     31.8º    0.0 mm
   26-06-2017    06:35      20.7º(-8.1)     81%         -         0.0 km/h    1010.9 hpa     31.8º    0.0 mm
   26-06-2017    06:30      20.7º(-8.1)     81%         -         0.0 km/h    1010.9 hpa     31.9º    0.0 mm
   26-06-2017    06:25      20.8º(-7.9)     80%         -         0.0 km/h    1010.9 hpa     31.9º    0.0 mm
   26-06-2017    06:20      21.0º(-7.7)     78%         -         0.0 km/h    1011.0 hpa     31.9º    0.0 mm
   26-06-2017    06:15      21.2º(-7.5)     77%         -         0.0 km/h    1011.0 hpa     32.0º    0.0 mm
   26-06-2017    06:10      21.4º(-7.4)     74%         -         0.0 km/h    1011.0 hpa     32.0º    0.0 mm
   26-06-2017    06:05      21.7º(-7.1)     72%         -         0.0 km/h    1010.9 hpa     32.0º    0.0 mm
   26-06-2017    06:00      22.2º(-6.5)     69%         -         0.0 km/h    1010.9 hpa     32.0º    0.0 mm
   26-06-2017    05:55      22.7º(-5.9)     65%         -         0.0 km/h    1010.9 hpa     32.0º    0.0 mm
   26-06-2017    05:50      23.0º(-5.6)     61%         -         0.0 km/h    1010.8 hpa     32.1º    0.0 mm
   26-06-2017    05:45      23.1º(-5.5)     59%         -         0.0 km/h    1010.7 hpa     32.1º    0.0 mm
   26-06-2017    05:40      23.2º(-5.3)     58%         -         0.0 km/h    1010.8 hpa     32.1º    0.0 mm
   26-06-2017    05:35      23.4º(-5.0)     57%         -         0.0 km/h    1010.7 hpa     32.1º    0.0 mm
   26-06-2017    05:30      23.6º(-4.9)     55%         -         0.0 km/h    1010.7 hpa     32.1º    0.0 mm
   26-06-2017    05:25      23.6º(-5.0)     54%         -         0.0 km/h    1010.7 hpa     32.1º    0.0 mm
   26-06-2017    05:20      23.5º(-5.3)     54%         -         0.0 km/h    1010.7 hpa     32.1º    0.0 mm
   26-06-2017    05:15      23.4º(-5.5)     54%         -         0.0 km/h    1010.7 hpa     32.1º    0.0 mm
   26-06-2017    05:10      23.4º(-5.5)     53%         -         0.0 km/h    1010.7 hpa     32.1º    0.0 mm
   26-06-2017    05:05      23.4º(-5.4)     53%         -         0.0 km/h    1010.7 hpa     32.1º    0.0 mm
   26-06-2017    05:00      23.4º(-5.4)     53%         -         0.0 km/h    1010.7 hpa     32.1º    0.0 mm
   26-06-2017    04:55      23.4º(-5.4)     53%         -         0.0 km/h    1010.7 hpa     32.1º    0.0 mm
   26-06-2017    04:50      23.5º(-5.3)     53%         -         0.0 km/h    1010.7 hpa     32.1º    0.0 mm
   26-06-2017    04:45      23.6º(-5.3)     53%         -         0.0 km/h    1010.7 hpa     32.1º    0.0 mm
   26-06-2017    04:40      23.7º(-5.2)     53%         -         0.0 km/h    1010.6 hpa     32.1º    0.0 mm
   26-06-2017    04:35      23.9º(-5.2)     53%         -         0.0 km/h    1010.7 hpa     32.1º    0.0 mm
   26-06-2017    04:30      24.2º(-4.9)     52%         -         0.0 km/h    1010.6 hpa     32.1º    0.0 mm
   26-06-2017    04:25      24.6º(-4.6)     50%         -         0.0 km/h    1010.7 hpa     32.1º    0.0 mm
   26-06-2017    04:20      24.8º(-4.5)     49%         -         0.0 km/h    1010.7 hpa     32.1º    0.0 mm
   26-06-2017    04:15      24.8º(-4.5)     50%         -         0.0 km/h    1010.6 hpa     32.1º    0.0 mm
   26-06-2017    04:10      24.7º(-4.6)     49%         -         0.0 km/h    1010.6 hpa     32.1º    0.0 mm
   26-06-2017    04:05      24.7º(-4.7)     49%         -         0.0 km/h    1010.5 hpa     32.1º    0.0 mm
   26-06-2017    04:00      24.7º(-4.7)     49%         -         0.0 km/h    1010.6 hpa     32.3º    0.0 mm
   26-06-2017    03:55      24.8º(-4.8)     49%         -         0.0 km/h    1010.5 hpa     32.3º    0.0 mm
   26-06-2017    03:50      24.9º(-4.7)     49%         -         0.0 km/h    1010.7 hpa     32.3º    0.0 mm
   26-06-2017    03:45      25.3º(-4.3)     48%         -         0.0 km/h    1010.7 hpa     32.3º    0.0 mm
   26-06-2017    03:40      25.5º(-4.2)     47%         -         0.0 km/h    1010.7 hpa     32.3º    0.0 mm
   26-06-2017    03:35      25.6º(-4.2)     47%         -         0.0 km/h    1010.7 hpa     32.3º    0.0 mm
   26-06-2017    03:30      25.7º(-4.1)     47%         -         0.0 km/h    1010.9 hpa     32.3º    0.0 mm
   26-06-2017    03:25      25.7º(-4.0)     47%         -         0.0 km/h    1010.9 hpa     32.3º    0.0 mm
   26-06-2017    03:20      25.7º(-4.0)     47%         -         0.0 km/h    1011.0 hpa     32.3º    0.0 mm
   26-06-2017    03:15      25.7º(-4.0)     47%         -         0.0 km/h    1011.0 hpa     32.3º    0.0 mm
   26-06-2017    03:10      25.7º(-3.9)     47%         -         0.0 km/h    1011.0 hpa     32.3º    0.0 mm
   26-06-2017    03:05      25.8º(-3.8)     46%         -         0.0 km/h    1011.1 hpa     32.3º    0.0 mm
   26-06-2017    03:00      25.9º(-3.7)     46%         -         0.0 km/h    1011.1 hpa     32.3º    0.0 mm
   26-06-2017    02:55      26.1º(-3.4)     46%         -         0.0 km/h    1011.0 hpa     32.3º    0.0 mm
   26-06-2017    02:50      26.1º(-3.4)     45%      315(NW)      1.6 km/h    1011.1 hpa     32.3º    0.0 mm
   26-06-2017    02:45      26.2º(-3.3)     45%      315(NW)      3.2 km/h    1011.1 hpa     32.3º    0.0 mm
   26-06-2017    02:40      26.2º(-3.2)     45%      315(NW)      3.2 km/h    1011.1 hpa     32.3º    0.0 mm
   26-06-2017    02:35      26.3º(-3.2)     45%      315(NW)      1.6 km/h    1011.2 hpa     32.3º    0.0 mm
   26-06-2017    02:30      26.3º(-3.3)     45%      315(NW)      4.8 km/h    1011.3 hpa     32.3º    0.0 mm
   26-06-2017    02:25      26.3º(-3.4)     44%      315(NW)      1.6 km/h    1011.3 hpa     32.3º    0.0 mm
   26-06-2017    02:20      26.4º(-3.3)     44%         -         0.0 km/h    1011.2 hpa     32.3º    0.0 mm
   26-06-2017    02:15      26.4º(-3.4)     44%         -         0.0 km/h    1011.3 hpa     32.3º    0.0 mm
   26-06-2017    02:10      26.4º(-3.4)     43%         -         0.0 km/h    1011.3 hpa     32.3º    0.0 mm
   26-06-2017    02:05      26.5º(-3.4)     43%         -         0.0 km/h    1011.3 hpa     32.3º    0.0 mm
   26-06-2017    02:00      26.6º(-3.4)     43%         -         0.0 km/h    1011.4 hpa     32.3º    0.0 mm
   26-06-2017    01:55      26.6º(----)     43%         -         0.0 km/h    1011.4 hpa     32.3º    0.0 mm
   26-06-2017    01:50      26.7º(----)     43%         -         0.0 km/h    1011.4 hpa     32.3º    0.0 mm
   26-06-2017    01:45      26.7º(----)     43%         -         0.0 km/h    1011.5 hpa     32.3º    0.0 mm
   26-06-2017    01:40      26.8º(----)     42%         -         0.0 km/h    1011.5 hpa     32.3º    0.0 mm
   26-06-2017    01:35      26.8º(----)     42%         -         0.0 km/h    1011.5 hpa     32.3º    0.0 mm
   26-06-2017    01:30      26.7º(----)     42%         -         0.0 km/h    1011.5 hpa     32.3º    0.0 mm
   26-06-2017    01:25      26.7º(----)     43%         -         0.0 km/h    1011.5 hpa     32.3º    0.0 mm
   26-06-2017    01:20      26.7º(----)     43%         -         0.0 km/h    1011.6 hpa     32.3º    0.0 mm
   26-06-2017    01:15      26.6º(----)     43%         -         0.0 km/h    1011.6 hpa     32.3º    0.0 mm
   26-06-2017    01:10      26.6º(----)     43%         -         0.0 km/h    1011.6 hpa     32.3º    0.0 mm
   26-06-2017    01:05      26.5º(----)     43%         -         0.0 km/h    1011.6 hpa     32.3º    0.0 mm
   26-06-2017    01:00      26.6º(----)     43%      315(NW)      1.6 km/h    1011.7 hpa     32.3º    0.0 mm
   26-06-2017    00:55      26.6º(----)     43%      292 (W)      1.6 km/h    1011.7 hpa     32.3º    0.0 mm
   26-06-2017    00:50      26.6º(----)     43%         -         0.0 km/h    1011.7 hpa     32.3º    0.0 mm
   26-06-2017    00:45      26.7º(----)     43%      270 (W)      1.6 km/h    1011.7 hpa     32.3º    0.0 mm
   26-06-2017    00:40      26.7º(----)     42%      292 (W)      3.2 km/h    1011.6 hpa     32.3º    0.0 mm
   26-06-2017    00:35      26.8º(----)     42%      292 (W)      3.2 km/h    1011.7 hpa     32.3º    0.0 mm
   26-06-2017    00:30      27.1º(----)     42%      292 (W)      1.6 km/h    1011.8 hpa     32.1º    0.0 mm
   26-06-2017    00:25      27.4º(----)     41%      315(NW)      4.8 km/h    1011.8 hpa     32.1º    0.0 mm
   26-06-2017    00:20      27.7º(----)     40%         -         0.0 km/h    1011.7 hpa     32.1º    0.0 mm
   26-06-2017    00:15      27.7º(----)     40%         -         0.0 km/h    1011.5 hpa     32.1º    0.0 mm
   26-06-2017    00:10      27.8º(----)     40%         -         0.0 km/h    1011.5 hpa     32.1º    0.0 mm
   26-06-2017    00:05      27.9º(----)     40%         -         0.0 km/h    1011.4 hpa     32.1º    0.0 mm
   26-06-2017    00:00      27.9º(----)     40%      090 (E)      3.2 km/h    1011.5 hpa     32.1º    0.0 mm